Temperature
7 7 7 6 6 5 5 5 5 6 5 6 6 5 5 4 4 3 3 3 2 2 2 2 2 1 -0 -1 -1 -2 -2 -2 -2 -2 -2 -1 1 1 0 0 1 -1 -1 -2
6 5 5 5 5 5 5 5 5 5 5 6 4 4 4 3 3 2 2 1 0 0 0 0 1 -0 -0 -2 -2 -3 -3 -4 -4 -3 -3 -2 -1 -2 -2 -2 -1 -2 -2 -2
6 4 5 5 5 5 5 5 4 3 4 5 4 3 3 2 1 1 -0 -1 -2 -2 -1 -1 -1 -1 -2 -2 -4 -4 -4 -5 -4 -4 -4 -4 -3 -4 -4 -3 -3 -3 -3 -3
4 4 3 5 5 5 4 4 5 4 4 4 3 2 1 1 1 -1 -1 -2 -2 -2 -2 -2 -2 -2 -3 -4 -5 -5 -5 -5 -5 -5 -5 -5 -5 -4 -4 -4 -4 -4 -4 -4
1 3 4 5 4 4 3 3 5 4 3 2 1 0 2 1 -1 -2 -2 -2 -2 -2 -2 -3 -3 -3 -4 -5 -5 -6 -6 -6 -6 -6 -5 -5 -5 -5 -5 -5 -5 -5 -5 -5
2 2 2 5 5 3 3 3 5 3 2 0 -1 -0 1 -2 -3 -3 -3 -2 -2 -3 -3 -4 -4 -5 -5 -6 -7 -7 -7 -7 -7 -6 -5 -5 -6 -6 -6 -6 -6 -6 -6 -6
2 2 3 5 4 3 2 3 3 2 0 -2 -2 -2 -3 -3 -4 -4 -4 -3 -3 -4 -5 -5 -6 -6 -6 -7 -7 -8 -8 -7 -7 -7 -7 -7 -7 -7 -8 -8 -8 -7 -7 -7
2 1 0 3 3 2 3 3 2 -0 -2 -4 -4 -4 -4 -5 -5 -6 -6 -5 -5 -5 -6 -7 -7 -8 -8 -8 -8 -9 -9 -8 -8 -9 -8 -8 -9 -9 -9 -9 -9 -9 -9 -9
3 4 5 4 4 3 2 1 -1 -3 -4 -5 -5 -6 -6 -6 -7 -7 -8 -8 -8 -7 -7 -8 -8 -9 -10 -9 -9 -10 -10 -10 -10 -10 -9 -9 -10 -10 -10 -10 -10 -10 -10 -10
2 3 4 3 3 2 0 -2 -3 -4 -5 -7 -7 -7 -8 -8 -8 -9 -9 -9 -9 -9 -9 -9 -10 -10 -10 -10 -10 -11 -11 -11 -11 -10 -10 -10 -10 -10 -11 -11 -11 -10 -10 -10
2 3 3 3 2 0 -2 -4 -5 -6 -7 -8 -8 -9 -9 -9 -10 -10 -10 -10 -10 -10 -11 -12 -12 -11 -11 -11 -11 -11 -11 -11 -11 -11 -11 -11 -11 -11 -11 -11 -11 -11 -11 -11
3 4 3 2 1 -2 -4 -6 -6 -7 -7 -8 -9 -10 -10 -10 -11 -11 -11 -11 -12 -12 -12 -12 -12 -12 -11 -11 -11 -12 -12 -12 -12 -12 -12 -12 -12 -12 -12 -11 -12 -12 -12 -12
2 1 1 -0 -2 -4 -5 -6 -7 -7 -8 -9 -10 -10 -10 -11 -11 -12 -12 -13 -13 -13 -13 -13 -13 -13 -12 -12 -12 -12 -12 -13 -13 -13 -13 -13 -13 -13 -13 -13 -13 -12 -13 -13
0 -0 -1 -2 -3 -5 -6 -7 -8 -8 -9 -10 -10 -11 -11 -11 -11 -11 -12 -13 -13 -13 -13 -13 -13 -13 -13 -13 -13 -13 -14 -14 -13 -13 -14 -14 -14 -14 -14 -14 -14 -13 -14 -13
1 -1 -2 -3 -4 -6 -7 -8 -8 -9 -10 -10 -10 -10 -11 -11 -12 -12 -12 -12 -13 -13 -13 -13 -14 -14 -14 -14 -14 -14 -15 -14 -14 -14 -15 -15 -15 -15 -15 -15 -15 -15 -14 -14
1 -0 -2 -4 -5 -6 -8 -9 -9 -10 -10 -10 -10 -11 -11 -12 -12 -12 -13 -13 -13 -14 -14 -14 -15 -15 -14 -14 -15 -15 -15 -15 -15 -15 -16 -15 -15 -15 -15 -15 -15 -15 -15 -15
0 -1 -3 -4 -6 -7 -8 -9 -9 -10 -10 -10 -11 -11 -11 -12 -12 -12 -13 -13 -14 -15 -15 -15 -15 -15 -15 -15 -15 -15 -15 -16 -16 -16 -16 -16 -15 -16 -16 -16 -16 -15 -15 -15
-1 -2 -3 -4 -6 -7 -8 -9 -9 -10 -10 -11 -11 -11 -12 -12 -12 -13 -13 -14 -14 -15 -15 -15 -15 -15 -15 -15 -15 -15 -16 -16 -16 -16 -16 -16 -16 -16 -16 -16 -16 -15 -15 -16
-2 -3 -4 -5 -6 -7 -8 -9 -10 -10 -11 -11 -12 -12 -12 -13 -13 -14 -14 -15 -16 -16 -15 -15 -15 -15 -16 -16 -16 -15 -16 -16 -16 -16 -16 -16 -16 -16 -16 -16 -16 -16 -16 -16
-2 -3 -5 -6 -7 -8 -9 -10 -10 -11 -11 -12 -12 -12 -13 -13 -14 -14 -15 -15 -16 -16 -16 -15 -15 -15 -16 -15 -15 -15 -15 -16 -16 -16 -16 -16 -16 -16 -16 -15 -16 -16 -16 -16
-3 -4 -5 -6 -8 -9 -10 -10 -11 -11 -12 -12 -12 -12 -13 -14 -14 -15 -15 -16 -16 -16 -15 -15 -14 -15 -15 -15 -15 -15 -15 -16 -15 -15 -15 -16 -16 -16 -16 -15 -16 -16 -15 -16
-4 -5 -6 -7 -8 -9 -10 -10 -11 -11 -12 -12 -12 -13 -14 -14 -15 -15 -16 -16 -17 -16 -16 -15 -15 -15 -15 -15 -15 -15 -16 -16 -15 -15 -15 -15 -16 -16 -16 -15 -15 -15 -15 -15
-4 -6 -7 -8 -9 -10 -10 -11 -11 -12 -12 -12 -13 -14 -14 -15 -15 -15 -16 -16 -17 -16 -16 -16 -16 -15 -15 -15 -15 -15 -15 -15 -15 -15 -15 -15 -16 -16 -15 -15 -15 -15 -15 -15
-6 -7 -8 -9 -9 -10 -11 -11 -12 -12 -12 -13 -14 -14 -14 -15 -15 -15 -15 -16 -16 -16 -16 -16 -16 -16 -15 -15 -15 -15 -15 -15 -15 -15 -15 -15 -15 -15 -15 -15 -15 -15 -15 -15
-6 -7 -8 -9 -10 -10 -11 -12 -12 -12 -13 -14 -14 -14 -14 -15 -15 -15 -15 -16 -16 -16 -15 -15 -15 -15 -15 -15 -15 -15 -15 -15 -15 -15 -15 -14 -14 -14 -14 -14 -14 -14 -14 -14
-7 -8 -9 -10 -10 -11 -11 -12 -12 -13 -13 -14 -14 -14 -14 -15 -15 -15 -15 -15 -16 -16 -15 -15 -15 -15 -15 -15 -15 -15 -14 -14 -14 -14 -14 -14 -14 -14 -14 -14 -14 -14 -14 -14
-8 -9 -9 -10 -10 -11 -11 -12 -12 -13 -13 -14 -14 -14 -15 -15 -15 -15 -15 -15 -15 -15 -15 -15 -15 -14 -14 -14 -14 -14 -14 -14 -14 -14 -14 -14 -14 -14 -14 -14 -15 -15 -15 -14
Wind_Speed
12 14 14 17 17 10 9 13 12 17 21 25 28 32 35 35 35 36 35 34 32 30 28 26 24 19 11 10 10 9 7 6 5 4 2 3 8 8 4 3 5 2 3 5
7 7 10 15 14 10 10 8 13 18 22 25 29 34 36 35 36 34 32 33 33 32 29 25 23 18 7 6 7 7 7 7 6 5 5 6 7 3 2 4 5 3 5 8
4 7 14 8 1 5 9 11 14 17 22 27 36 36 35 36 32 28 30 30 30 28 25 22 18 10 5 5 6 7 8 8 8 8 7 6 4 0 3 6 5 4 5 7
5 8 5 3 4 6 12 15 18 18 22 30 32 33 32 27 26 28 29 26 24 21 19 17 10 6 5 6 7 8 8 8 8 7 5 4 6 7 6 5 4 5 7 7
3 7 12 5 3 6 14 23 14 19 29 32 32 29 22 22 27 28 27 22 20 17 14 10 8 7 6 8 8 8 8 9 9 8 4 5 7 6 4 4 5 5 6 6
2 5 5 3 4 9 14 11 17 27 29 29 30 23 21 26 28 27 24 20 18 14 12 11 10 9 9 10 10 10 9 9 9 10 7 7 6 5 4 3 3 4 4 5
6 6 8 7 8 12 11 17 28 28 25 23 19 21 25 27 25 25 23 20 16 13 13 13 12 10 10 10 11 10 9 8 9 10 9 7 6 5 4 3 2 2 2 3
3 5 6 3 11 11 19 23 25 23 22 21 23 23 22 22 22 22 20 18 15 13 13 13 13 11 11 11 10 9 8 8 8 9 8 7 6 5 5 4 3 3 4 4
6 9 12 15 18 20 20 20 20 19 19 18 19 18 18 19 18 18 18 16 13 12 12 12 13 13 12 12 10 9 9 9 9 9 8 7 6 6 5 4 4 4 4 4
8 11 15 17 20 18 15 17 18 17 14 15 15 16 17 16 16 15 15 14 13 12 12 12 13 13 13 13 11 10 9 9 9 9 9 8 6 5 4 4 5 5 4 5
11 15 17 13 16 16 15 15 16 15 12 12 14 14 15 14 14 13 13 12 12 11 11 12 12 13 13 13 12 10 9 9 9 8 8 7 6 5 5 5 6 6 6 6
9 15 14 19 19 15 13 14 13 12 12 12 12 13 13 12 12 12 12 12 11 11 11 12 12 13 13 13 12 11 10 9 9 9 8 8 8 7 6 6 9 9 9 9
12 15 16 17 12 10 12 11 10 7 9 11 11 11 11 11 11 12 12 12 12 12 12 11 11 12 13 12 12 11 11 10 8 9 9 9 8 8 8 8 8 7 9 11
13 12 10 7 9 11 10 8 8 6 7 8 9 10 10 10 10 11 11 12 11 11 12 12 12 12 13 12 12 11 11 11 10 8 9 9 8 8 8 8 9 9 10 11
6 6 9 9 10 9 8 7 6 6 7 8 8 9 9 8 9 9 10 10 10 11 12 12 12 13 13 13 12 12 11 10 10 9 8 8 7 7 7 8 9 9 9 9
11 9 7 8 10 9 7 6 6 7 7 7 7 8 7 7 7 8 9 10 10 11 12 11 12 13 12 12 12 11 10 12 11 8 7 7 7 7 7 8 8 9 9 9
6 7 8 10 9 8 5 4 5 6 6 6 7 7 7 7 8 9 10 10 9 9 11 12 12 11 11 12 10 9 8 9 9 7 6 6 7 7 8 8 9 10 10 11
5 6 5 5 5 5 3 3 4 4 4 5 5 5 7 8 9 9 10 10 10 10 11 13 12 10 12 11 8 8 7 7 7 7 7 8 8 8 8 9 10 11 11 12
4 4 3 1 1 1 1 1 2 3 3 4 5 6 6 7 8 9 9 9 11 12 13 13 12 11 11 13 11 8 9 9 9 8 7 9 9 9 9 10 11 12 11 11
2 2 2 3 3 3 2 0 0 2 3 4 5 6 7 8 9 9 9 8 9 11 12 13 11 8 8 10 11 9 10 10 10 9 9 9 9 10 10 11 11 11 11 11
3 2 3 4 4 3 2 2 2 2 3 4 5 6 7 8 9 9 8 9 11 14 14 15 12 8 9 11 11 10 10 10 10 9 9 9 10 11 11 12 11 11 11 11
2 3 3 4 4 4 3 3 2 3 3 5 6 6 8 8 9 8 7 8 11 14 12 11 12 12 13 12 10 11 11 11 10 10 10 11 11 12 13 13 13 12 12 11
2 3 4 5 5 5 4 3 2 3 3 4 6 8 8 7 7 7 8 9 11 12 10 11 16 20 18 12 11 12 12 12 12 11 11 12 13 14 14 15 14 14 13 12
4 5 6 6 6 5 4 2 1 1 2 2 4 5 6 6 6 6 7 10 14 13 10 13 18 20 17 11 11 12 13 13 12 12 13 14 13 14 14 15 15 14 14 14
6 7 7 6 5 4 4 3 2 1 1 3 4 6 6 5 5 7 8 9 12 13 11 14 19 19 14 12 13 14 14 14 15 15 15 15 15 15 15 15 15 15 15 14
6 6 5 4 4 4 3 3 2 3 3 3 4 5 6 6 7 8 8 9 11 12 11 11 13 15 13 14 15 16 16 16 17 17 18 17 19 19 18 18 19 17 15 15
6 6 6 5 4 4 4 3 3 3 3 3 4 5 6 7 8 8 9 9 9 10 11 12 12 13 14 16 16 17 17 17 18 19 19 20 20 20 20 20 18 17 16 15
Wind_Direction
278 291 288 279 284 288 268 276 277 295 306 316 329 332 330 325 321 319 318 320 320 319 319 316 321 323 319 324 340 348 1 358 5 2 8 95 82 75 93 97 85 85 80 78
285 298 297 282 282 280 284 290 288 300 308 327 325 329 327 324 321 319 322 323 320 318 317 318 319 324 332 342 349 360 15 9 5 7 6 31 61 72 112 109 101 111 77 66
316 331 310 295 112 325 319 312 303 305 319 330 327 330 326 321 319 327 326 323 318 315 314 317 326 343 7 5 2 17 21 15 12 12 8 9 8 214 107 97 109 108 77 66
310 326 303 26 330 337 321 312 311 316 329 329 324 324 318 320 333 330 324 323 321 315 314 319 349 26 34 25 22 23 21 13 5 3 2 22 39 45 58 84 96 86 70 58
317 308 301 321 74 354 329 313 327 338 330 328 325 322 321 341 335 325 323 321 322 321 322 346 21 29 33 34 29 26 21 11 358 344 349 68 62 47 51 84 90 81 72 57
289 296 287 329 360 333 318 308 348 335 330 331 327 323 328 333 330 328 327 326 333 346 8 27 27 25 31 28 22 15 12 7 0 358 24 50 51 43 41 69 90 87 69 43
263 269 276 306 330 326 312 320 328 328 332 330 322 313 317 328 339 346 350 355 10 26 31 27 23 27 31 22 11 1 4 10 12 10 20 29 35 35 30 28 35 33 17 8
260 262 284 342 321 318 315 318 321 328 329 325 319 318 327 336 346 354 359 9 23 31 30 25 21 21 24 17 2 358 5 16 18 17 19 16 19 22 18 358 334 313 305 319
255 275 304 311 307 309 319 317 323 325 328 331 328 332 338 342 349 354 0 9 18 26 26 22 20 19 17 10 5 10 16 21 19 17 19 11 10 13 8 358 344 326 318 322
277 280 293 303 304 316 324 321 322 327 333 338 333 338 343 349 355 357 1 7 12 19 21 19 17 18 15 11 10 17 20 20 17 16 14 15 9 9 6 360 347 336 324 316
270 292 303 301 322 330 324 327 328 332 343 345 342 347 351 353 357 359 0 5 11 13 15 16 16 18 16 12 9 10 15 13 11 9 5 1 359 353 345 346 335 325 321 312
294 312 315 308 324 337 332 332 333 336 345 350 353 350 352 355 356 359 0 2 6 8 11 11 13 14 12 11 10 7 2 6 2 357 353 347 341 339 339 336 333 326 321 314
282 299 303 303 319 336 330 332 331 343 346 345 354 355 353 353 354 357 358 1 2 3 5 7 8 9 5 0 0 1 353 348 349 349 345 339 335 333 330 331 324 319 322 322
283 294 299 312 320 327 331 333 329 339 345 348 349 351 354 356 358 2 359 358 2 3 1 358 358 0 357 353 352 351 346 340 340 340 339 335 333 331 329 327 327 325 327 323
290 279 292 304 316 329 334 337 333 338 345 352 354 354 356 358 359 357 355 356 356 359 356 352 351 352 349 346 345 343 340 338 337 339 341 336 336 334 333 331 327 323 323 322
310 309 299 312 325 330 331 338 334 335 344 352 359 359 357 359 358 357 356 353 349 347 347 343 342 345 346 345 342 341 342 343 345 348 345 345 343 339 338 332 325 321 318 318
312 312 316 320 327 326 328 335 332 332 342 356 358 354 360 1 357 355 350 348 343 341 346 343 333 339 344 342 343 346 345 346 348 347 347 340 338 339 335 329 323 318 315 315
273 276 279 288 307 313 324 352 342 345 353 352 355 5 11 1 350 341 338 338 345 348 354 344 341 360 350 347 359 350 345 342 340 340 337 335 340 334 332 330 327 325 323 320
282 283 278 286 18 22 57 4 346 2 5 9 18 20 10 356 342 334 336 345 353 351 345 339 348 356 353 352 359 347 342 337 333 330 325 326 326 325 328 329 332 332 328 324
267 236 206 130 105 102 111 82 6 44 34 28 23 14 1 354 349 346 346 350 353 339 335 338 344 338 348 352 348 341 335 330 323 316 312 314 316 320 321 326 331 329 325 322
266 211 182 150 132 115 91 63 68 67 43 29 24 6 347 349 354 355 354 353 347 344 345 339 338 331 352 350 337 331 330 329 321 311 306 306 306 307 309 314 318 319 322 324
216 196 178 152 142 119 88 77 78 74 51 33 20 1 354 356 354 356 359 349 339 346 349 339 337 350 3 348 334 328 326 323 318 311 305 302 301 300 301 302 303 305 312 314
160 157 141 134 128 120 110 95 78 57 43 28 14 4 357 351 353 352 347 344 337 345 349 338 341 347 354 344 332 327 324 319 315 310 304 298 295 294 294 293 294 296 298 301
123 115 109 110 122 131 126 122 103 65 39 17 16 5 357 353 351 353 336 331 337 340 340 334 339 340 340 332 325 322 319 314 308 304 299 298 294 290 288 289 289 290 290 289
118 119 125 135 139 129 128 146 156 110 58 34 20 10 5 354 341 337 336 332 335 336 334 333 337 336 331 322 318 315 312 305 300 298 297 292 287 285 283 281 280 282 283 283
131 133 132 127 123 130 138 141 100 61 41 33 22 11 1 352 343 341 337 336 335 334 332 328 326 325 322 317 314 311 307 301 296 292 289 284 281 279 278 277 276 275 275 274
127 130 129 124 127 135 135 119 93 67 47 29 20 10 1 354 349 348 344 340 337 333 328 324 321 318 315 312 309 305 303 300 298 296 292 287 283 281 279 276 274 272 271 270
Height
1554 1552 1552 1550 1548 1550 1550 1544 1541 1528 1527 1523 1519 1516 1510 1503 1495 1487 1480 1473 1466 1459 1452 1447 1442 1437 1430 1423 1417 1410 1405 1403 1402 1401 1400 1400 1399 1403 1408 1409 1409 1415 1416 1413
1556 1556 1554 1549 1546 1547 1545 1544 1540 1535 1529 1525 1520 1516 1508 1499 1492 1484 1476 1469 1462 1454 1448 1443 1438 1433 1426 1420 1414 1409 1405 1403 1401 1400 1399 1398 1397 1403 1405 1405 1407 1415 1414 1411
1553 1559 1553 1541 1544 1546 1545 1544 1542 1537 1531 1523 1515 1510 1505 1496 1488 1482 1476 1467 1457 1449 1444 1439 1434 1428 1423 1418 1414 1409 1406 1405 1402 1400 1399 1399 1400 1404 1404 1404 1409 1414 1412 1410
1561 1557 1554 1547 1547 1547 1545 1542 1538 1533 1530 1526 1519 1512 1503 1494 1486 1479 1471 1462 1453 1446 1440 1435 1430 1425 1421 1417 1414 1411 1409 1407 1405 1403 1402 1402 1404 1404 1404 1407 1410 1410 1409 1409
1571 1557 1549 1545 1547 1548 1546 1538 1531 1529 1526 1520 1511 1505 1497 1491 1486 1477 1467 1458 1451 1443 1437 1432 1428 1425 1421 1418 1415 1412 1410 1409 1407 1406 1405 1404 1404 1405 1407 1408 1409 1408 1408 1408
1567 1564 1558 1541 1546 1546 1545 1532 1527 1527 1522 1517 1508 1495 1490 1489 1482 1472 1462 1454 1447 1441 1436 1432 1429 1426 1423 1420 1417 1414 1411 1410 1409 1408 1406 1406 1406 1407 1407 1407 1407 1407 1406 1407
1563 1561 1548 1544 1545 1545 1541 1535 1527 1525 1522 1518 1511 1503 1491 1484 1477 1470 1460 1452 1446 1441 1437 1434 1431 1428 1425 1422 1418 1416 1414 1411 1409 1408 1408 1408 1407 1406 1405 1405 1405 1404 1404 1404
1567 1565 1562 1547 1545 1545 1540 1531 1527 1523 1521 1516 1509 1500 1491 1483 1476 1469 1461 1454 1448 1444 1440 1436 1432 1429 1427 1424 1421 1418 1416 1413 1411 1410 1409 1408 1407 1404 1403 1403 1403 1403 1403 1403
1560 1554 1547 1546 1545 1541 1537 1532 1526 1522 1516 1511 1505 1498 1491 1484 1478 1471 1464 1458 1452 1447 1442 1438 1434 1431 1429 1426 1423 1420 1418 1415 1413 1411 1408 1407 1406 1404 1403 1403 1402 1402 1402 1401
1558 1552 1548 1546 1541 1538 1534 1530 1524 1518 1512 1507 1502 1496 1489 1484 1478 1471 1466 1460 1454 1449 1444 1440 1436 1433 1430 1427 1424 1422 1420 1417 1415 1413 1410 1407 1406 1404 1404 1403 1403 1402 1401 1401
1554 1549 1544 1539 1538 1535 1530 1525 1519 1513 1509 1504 1499 1493 1489 1484 1478 1473 1467 1462 1457 1452 1447 1443 1439 1435 1432 1429 1426 1424 1422 1419 1417 1413 1410 1408 1407 1405 1404 1402 1402 1402 1400 1399
1545 1543 1542 1537 1534 1530 1524 1519 1514 1509 1505 1502 1497 1492 1488 1484 1479 1474 1469 1464 1459 1455 1450 1446 1442 1438 1434 1431 1428 1426 1424 1420 1416 1413 1411 1409 1407 1404 1402 1400 1398 1397 1397 1396
1544 1541 1539 1535 1531 1526 1521 1515 1511 1507 1503 1499 1495 1491 1487 1483 1479 1475 1470 1465 1461 1457 1453 1449 1445 1441 1436 1432 1429 1426 1423 1420 1417 1414 1411 1408 1405 1403 1401 1399 1397 1395 1394 1391
1540 1537 1533 1530 1527 1522 1517 1511 1508 1506 1502 1497 1493 1490 1486 1482 1478 1474 1470 1466 1463 1459 1455 1451 1447 1442 1437 1433 1429 1426 1422 1420 1417 1414 1410 1407 1404 1402 1399 1397 1395 1393 1391 1388
1535 1532 1530 1526 1522 1518 1513 1509 1506 1504 1500 1495 1491 1487 1484 1480 1477 1474 1470 1467 1463 1460 1456 1452 1447 1443 1438 1434 1430 1425 1422 1419 1416 1413 1409 1405 1403 1401 1399 1396 1394 1391 1389 1387
1530 1527 1524 1522 1518 1514 1510 1507 1505 1502 1498 1493 1489 1486 1483 1480 1478 1474 1471 1467 1463 1459 1455 1451 1447 1443 1438 1434 1429 1425 1421 1417 1414 1411 1408 1405 1403 1401 1398 1395 1393 1390 1387 1385
1526 1522 1519 1517 1514 1511 1508 1505 1503 1500 1496 1492 1488 1485 1482 1480 1478 1474 1471 1467 1463 1459 1456 1451 1447 1443 1438 1434 1429 1424 1420 1417 1414 1411 1409 1406 1404 1401 1397 1394 1391 1388 1385 1382
1522 1519 1516 1512 1508 1506 1505 1503 1501 1498 1495 1491 1488 1485 1482 1480 1477 1473 1469 1466 1462 1459 1455 1451 1447 1443 1438 1434 1430 1425 1421 1418 1415 1412 1409 1406 1403 1400 1397 1393 1390 1386 1382 1379
1516 1514 1512 1508 1504 1502 1502 1501 1499 1496 1493 1490 1488 1485 1482 1479 1476 1472 1468 1465 1461 1458 1454 1450 1447 1443 1439 1434 1431 1426 1422 1418 1415 1412 1408 1406 1402 1399 1396 1392 1388 1384 1380 1376
1513 1510 1508 1504 1501 1500 1499 1499 1497 1495 1492 1490 1487 1485 1482 1478 1475 1471 1467 1464 1461 1457 1454 1451 1447 1443 1439 1435 1431 1426 1422 1417 1414 1410 1407 1404 1401 1397 1394 1390 1386 1382 1377 1373
1509 1506 1504 1501 1499 1498 1498 1497 1496 1494 1492 1490 1487 1484 1481 1478 1474 1470 1466 1463 1461 1457 1454 1451 1447 1443 1440 1435 1430 1425 1420 1416 1412 1408 1405 1401 1398 1394 1391 1387 1383 1379 1375 1370
1505 1503 1501 1499 1498 1497 1496 1496 1495 1494 1492 1489 1487 1484 1481 1477 1474 1470 1466 1463 1460 1457 1454 1451 1447 1444 1439 1434 1429 1424 1419 1414 1410 1406 1402 1398 1394 1391 1387 1383 1379 1376 1372 1367
1501 1500 1499 1497 1497 1496 1496 1496 1495 1493 1492 1489 1486 1483 1480 1477 1473 1470 1466 1463 1459 1458 1454 1451 1447 1444 1439 1433 1428 1422 1417 1412 1407 1403 1398 1394 1390 1386 1381 1377 1373 1369 1366 1362
1498 1498 1496 1496 1496 1496 1496 1495 1495 1493 1491 1489 1486 1483 1480 1477 1474 1471 1467 1463 1460 1458 1454 1450 1446 1442 1437 1432 1426 1420 1415 1410 1405 1399 1394 1389 1384 1379 1374 1369 1365 1361 1358 1354
1496 1495 1495 1495 1495 1495 1496 1495 1494 1493 1491 1489 1487 1484 1481 1478 1474 1471 1467 1464 1461 1458 1454 1450 1446 1441 1436 1430 1424 1418 1412 1406 1400 1394 1388 1382 1376 1370 1364 1360 1356 1352 1349 1346
1494 1494 1494 1494 1495 1495 1495 1495 1495 1493 1491 1490 1488 1485 1482 1479 1475 1472 1469 1465 1462 1458 1454 1449 1445 1440 1434 1428 1421 1414 1407 1400 1393 1386 1378 1371 1363 1357 1351 1347 1343 1340 1338 1336
1493 1493 1494 1494 1495 1495 1495 1495 1495 1493 1492 1491 1489 1486 1483 1480 1477 1473 1470 1467 1463 1458 1454 1449 1444 1438 1431 1423 1416 1408 1400 1391 1383 1374 1365 1356 1347 1340 1334 1330 1326 1324 1322 1322